TimeEST,TemperatureF,Dew PointF,Humidity,Sea Level PressureIn,VisibilityMPH,Wind Direction,Wind SpeedMPH,Gust SpeedMPH,PrecipitationIn,Events,Conditions,WindDirDegrees,DateUTC
12:15 AM,50.0,44.2,81,30.11,10.0,SSW,5.8,-,N/A,,Clear,210,2013-01-29 05:15:00
12:35 AM,49.6,44.1,81,30.12,10.0,SW,6.9,-,N/A,,Clear,230,2013-01-29 05:35:00
12:55 AM,49.3,43.9,82,30.11,10.0,SW,4.6,-,N/A,,Clear,220,2013-01-29 05:55:00
1:15 AM,49.3,43.9,82,30.11,10.0,SSW,3.5,-,N/A,,Clear,200,2013-01-29 06:15:00
1:35 AM,49.1,43.9,82,30.11,10.0,SSW,3.5,-,N/A,,Clear,210,2013-01-29 06:35:00
1:55 AM,48.7,43.9,83,30.10,10.0,SSW,5.8,-,N/A,,Clear,210,2013-01-29 06:55:00
2:15 AM,48.9,43.7,82,30.11,10.0,SW,5.8,-,N/A,,Clear,220,2013-01-29 07:15:00
2:35 AM,48.7,43.7,83,30.11,10.0,SSW,5.8,-,N/A,,Clear,210,2013-01-29 07:35:00
2:55 AM,48.7,43.5,82,30.11,10.0,SW,4.6,-,N/A,,Clear,220,2013-01-29 07:55:00
3:15 AM,48.7,43.7,83,30.12,10.0,SW,4.6,-,N/A,,Clear,220,2013-01-29 08:15:00
3:35 AM,48.6,43.7,83,30.11,10.0,SW,4.6,-,N/A,,Clear,220,2013-01-29 08:35:00
3:55 AM,48.2,43.3,83,30.11,10.0,Calm,Calm,-,N/A,,Clear,0,2013-01-29 08:55:00
4:15 AM,45.5,42.8,90,30.11,10.0,Calm,Calm,-,N/A,,Clear,0,2013-01-29 09:15:00
4:35 AM,44.6,42.3,91,30.12,7.0,South,3.5,-,N/A,,Clear,180,2013-01-29 09:35:00
4:55 AM,43.2,41.2,93,30.12,7.0,SSW,3.5,-,N/A,,Clear,200,2013-01-29 09:55:00
5:15 AM,44.6,42.4,92,30.11,7.0,South,4.6,-,N/A,,Clear,190,2013-01-29 10:15:00
5:35 AM,46.4,42.8,87,30.12,10.0,SW,3.5,-,N/A,,Clear,220,2013-01-29 10:35:00
5:55 AM,44.6,42.1,91,30.13,7.0,Calm,Calm,-,N/A,,Clear,0,2013-01-29 10:55:00
6:15 AM,40.5,38.8,94,30.13,5.0,Calm,Calm,-,N/A,,Clear,0,2013-01-29 11:15:00
6:35 AM,41.7,40.8,97,30.14,7.0,Calm,Calm,-,N/A,,Clear,0,2013-01-29 11:35:00
6:55 AM,43.5,41.7,93,30.14,7.0,Calm,Calm,-,N/A,,Clear,0,2013-01-29 11:55:00
7:15 AM,40.5,39.7,97,30.15,4.0,Calm,Calm,-,N/A,,Clear,0,2013-01-29 12:15:00
7:35 AM,38.5,37.9,98,30.15,2.0,Calm,Calm,-,N/A,,Clear,0,2013-01-29 12:35:00
7:55 AM,41.2,40.3,97,30.15,4.0,Calm,Calm,-,N/A,,Clear,0,2013-01-29 12:55:00
8:15 AM,43.7,42.6,96,30.16,5.0,Calm,Calm,-,N/A,,Clear,0,2013-01-29 13:15:00
8:35 AM,46.0,43.9,92,30.16,5.0,Calm,Calm,-,N/A,,Clear,0,2013-01-29 13:35:00
8:55 AM,49.3,44.6,84,30.16,10.0,Calm,Calm,-,N/A,,Clear,0,2013-01-29 13:55:00
9:15 AM,51.1,45.0,80,30.16,10.0,Calm,Calm,-,N/A,,Clear,0,2013-01-29 14:15:00
9:35 AM,53.8,46.2,76,30.16,10.0,SSW,3.5,-,N/A,,Clear,200,2013-01-29 14:35:00
9:55 AM,55.9,47.3,73,30.17,10.0,Calm,Calm,-,N/A,,Clear,0,2013-01-29 14:55:00
10:15 AM,58.3,48.4,70,30.16,10.0,Calm,Calm,-,N/A,,Clear,0,2013-01-29 15:15:00
10:35 AM,61.0,49.8,67,30.16,10.0,South,3.5,-,N/A,,Clear,190,2013-01-29 15:35:00
10:55 AM,63.0,50.5,64,30.16,10.0,SSW,4.6,-,N/A,,Clear,200,2013-01-29 15:55:00
11:15 AM,64.9,50.7,60,30.15,10.0,SSW,8.1,-,N/A,,Clear,200,2013-01-29 16:15:00
11:35 AM,66.0,51.4,59,30.14,10.0,SW,3.5,-,N/A,,Clear,220,2013-01-29 16:35:00
11:55 AM,66.9,51.4,57,30.13,10.0,Calm,Calm,-,N/A,,Clear,0,2013-01-29 16:55:00
12:15 PM,68.5,52.2,56,30.12,10.0,Calm,Calm,-,N/A,,Clear,0,2013-01-29 17:15:00
12:35 PM,70.0,52.7,54,30.10,10.0,SE,6.9,-,N/A,,Clear,130,2013-01-29 17:35:00
12:55 PM,70.7,52.7,53,30.10,10.0,South,6.9,-,N/A,,Clear,180,2013-01-29 17:55:00
1:15 PM,71.4,52.7,52,30.09,10.0,South,6.9,-,N/A,,Clear,170,2013-01-29 18:15:00
1:35 PM,72.5,53.1,50,30.08,10.0,SW,6.9,-,N/A,,Clear,220,2013-01-29 18:35:00
1:55 PM,71.4,53.2,53,30.08,10.0,SSE,6.9,-,N/A,,Clear,150,2013-01-29 18:55:00
2:15 PM,72.5,53.1,50,30.08,10.0,SSW,8.1,-,N/A,,Clear,200,2013-01-29 19:15:00
2:35 PM,73.4,53.2,49,30.07,10.0,SSW,6.9,-,N/A,,Clear,200,2013-01-29 19:35:00
2:55 PM,73.4,53.6,50,30.07,10.0,South,6.9,-,N/A,,Clear,180,2013-01-29 19:55:00
3:15 PM,73.4,53.6,50,30.06,10.0,SSE,9.2,-,N/A,,Clear,160,2013-01-29 20:15:00
3:35 PM,73.4,53.8,50,30.07,10.0,SSE,6.9,-,N/A,,Clear,160,2013-01-29 20:35:00
3:55 PM,73.4,53.2,49,30.06,10.0,South,5.8,-,N/A,,Clear,190,2013-01-29 20:55:00
4:15 PM,73.4,53.4,49,30.06,10.0,South,5.8,-,N/A,,Clear,170,2013-01-29 21:15:00
4:35 PM,72.3,53.8,52,30.06,10.0,South,6.9,-,N/A,,Clear,170,2013-01-29 21:35:00
4:55 PM,70.9,53.6,54,30.06,10.0,SSE,5.8,-,N/A,,Clear,160,2013-01-29 21:55:00
5:15 PM,69.3,53.8,58,30.07,10.0,SSE,4.6,-,N/A,,Clear,150,2013-01-29 22:15:00
5:35 PM,68.5,53.4,58,30.06,10.0,SE,4.6,-,N/A,,Clear,140,2013-01-29 22:35:00
5:55 PM,67.5,53.4,61,30.06,10.0,SE,4.6,-,N/A,,Clear,130,2013-01-29 22:55:00
6:15 PM,66.4,53.4,63,30.06,10.0,SE,4.6,-,N/A,,Clear,140,2013-01-29 23:15:00
6:35 PM,61.2,52.7,74,30.05,10.0,Calm,Calm,-,N/A,,Clear,0,2013-01-29 23:35:00
6:55 PM,60.1,52.2,75,30.05,10.0,Calm,Calm,-,N/A,,Clear,0,2013-01-29 23:55:00
7:15 PM,57.9,51.3,78,30.06,10.0,Calm,Calm,-,N/A,,Clear,0,2013-01-30 00:15:00
7:35 PM,56.7,51.3,82,30.06,10.0,ESE,4.6,-,N/A,,Clear,120,2013-01-30 00:35:00
7:55 PM,57.6,51.6,81,30.05,10.0,SE,3.5,-,N/A,,Clear,130,2013-01-30 00:55:00
8:15 PM,56.7,50.9,81,30.06,10.0,Calm,Calm,-,N/A,,Clear,0,2013-01-30 01:15:00
8:35 PM,54.3,50.4,86,30.06,10.0,Calm,Calm,-,N/A,,Clear,0,2013-01-30 01:35:00
8:55 PM,54.1,50.4,87,30.07,10.0,Calm,Calm,-,N/A,,Clear,0,2013-01-30 01:55:00
9:15 PM,55.2,50.7,85,30.07,10.0,Calm,Calm,-,N/A,,Clear,0,2013-01-30 02:15:00
9:35 PM,52.9,49.6,89,30.06,10.0,SE,3.5,-,N/A,,Clear,130,2013-01-30 02:35:00
9:55 PM,54.7,50.5,86,30.06,10.0,Calm,Calm,-,N/A,,Clear,0,2013-01-30 02:55:00
10:15 PM,55.0,50.4,84,30.06,10.0,Calm,Calm,-,N/A,,Clear,0,2013-01-30 03:15:00
10:35 PM,53.8,50.7,89,30.06,10.0,South,3.5,-,N/A,,Clear,170,2013-01-30 03:35:00
10:55 PM,56.5,51.4,83,30.05,10.0,South,3.5,-,N/A,,Clear,170,2013-01-30 03:55:00
11:15 PM,56.5,51.3,83,30.04,10.0,South,3.5,-,N/A,,Clear,170,2013-01-30 04:15:00
11:35 PM,56.7,51.6,83,30.04,10.0,South,4.6,-,N/A,,Clear,180,2013-01-30 04:35:00
11:55 PM,57.4,51.6,81,30.02,10.0,SSE,5.8,-,N/A,,Clear,160,2013-01-30 04:55:00